Weather History for Spirit of St Louis, MO

Change the Weather History Date:

Friday, April 19, 2013

  Actual Average Record
Temperature  
Mean Temperature 44 °F -  
Max Temperature 52 °F 66 °F 88 °F (2011)
Min Temperature 36 °F 43 °F 35 °F (1998)
Degree Days  
Heating Degree Days 21    
Moisture  
Dew Point 26 °F    
Average Humidity 52    
Maximum Humidity 76    
Minimum Humidity 33    
Precipitation  
Precipitation 0.00 in - - ()
Sea Level Pressure  
Sea Level Pressure 29.92 in    
Wind  
Wind Speed 15 mph (West)    
Max Wind Speed 23 mph    
Max Gust Speed 33 mph    
Visibility 10 miles    
Events      
Averages and records for this station are not official NWS values.
T = Trace of Precipitation, MM = Missing Value Source: NWS Daily Summary

Daily Weather History Graph

Daily Weather History Graph

Search for Another Location

Airport:

Trip Planner

Search our weather history database for the weather conditions in past years. The results will help you decide how hot, cold, wet, or windy it might be!

Date:

Astronomy

Apr. 19, 2013 Rise Set
Actual Time 6:20 AM CDT 7:43 PM CDT
Civil Twilight 5:52 AM CDT 8:11 PM CDT
Nautical Twilight 5:19 AM CDT 8:44 PM CDT
Astronomical Twilight 4:44 AM CDT 9:19 PM CDT
Moon 1:32 PM CDT (4/19) 2:31 AM CDT (4/19)
Length of Visible Light 14h 18m
Length of Day
13h 23m
First Quarter, 62% of the Moon is Illuminated
Apr 19
First Quarter
Apr 25
Full
May 2
Last Quarter
May 9
New
May 17
First Quarter

Hourly Weather History & Observations

Time (CDT) Temp. Windchill Dew Point Humidity Pressure Visibility Wind Dir Wind Speed Gust Speed Precip Events Conditions
12:54 AM 41.0 °F 33.1 °F 30.0 °F 65% 29.79 in 10.0 mi West 15.0 mph 23.0 mph N/A   Overcast
1:54 AM 41.0 °F 32.8 °F 28.0 °F 60% 29.78 in 10.0 mi West 16.1 mph 26.5 mph N/A   Overcast
2:54 AM 41.0 °F 32.2 °F 28.0 °F 60% 29.79 in 10.0 mi West 18.4 mph 28.8 mph N/A   Overcast
3:54 AM 39.9 °F 32.1 °F 26.1 °F 58% 29.79 in 10.0 mi West 13.8 mph 33.4 mph N/A   Overcast
4:54 AM 39.9 °F 31.4 °F 26.1 °F 58% 29.81 in 10.0 mi West 16.1 mph 26.5 mph N/A   Overcast
8:54 AM 37.9 °F 30.5 °F 26.1 °F 62% 29.88 in 10.0 mi West 11.5 mph 23.0 mph N/A   Overcast
9:54 AM 39.0 °F 31.0 °F 26.1 °F 60% 29.89 in 10.0 mi West 13.8 mph 23.0 mph N/A   Overcast
10:54 AM 41.0 °F 33.9 °F 28.0 °F 60% 29.90 in 10.0 mi West 12.7 mph 24.2 mph N/A   Overcast
11:54 AM 44.1 °F 37.7 °F 28.0 °F 53% 29.90 in 10.0 mi West 12.7 mph 27.6 mph N/A   Overcast
12:54 PM 46.9 °F - 27.0 °F 46% 29.90 in 10.0 mi West 18.4 mph 24.2 mph N/A   Mostly Cloudy
1:54 PM 50.0 °F - 28.0 °F 43% 29.89 in 10.0 mi West 19.6 mph 29.9 mph N/A   Mostly Cloudy
2:54 PM 51.1 °F - 26.1 °F 38% 29.90 in 10.0 mi West 17.3 mph 28.8 mph N/A   Mostly Cloudy
3:54 PM 50.0 °F - 24.1 °F 36% 29.91 in 10.0 mi West 20.7 mph 32.2 mph N/A   Mostly Cloudy
4:54 PM 51.1 °F - 23.0 °F 33% 29.94 in 10.0 mi West 19.6 mph 32.2 mph N/A   Mostly Cloudy
5:54 PM 50.0 °F - 21.9 °F 33% 29.96 in 10.0 mi West 23.0 mph 32.2 mph N/A   Overcast
6:54 PM 50.0 °F - 21.9 °F 33% 29.98 in 10.0 mi West 21.9 mph 31.1 mph N/A   Mostly Cloudy
7:54 PM 48.0 °F - 21.9 °F 36% 30.01 in 10.0 mi West 17.3 mph 23.0 mph N/A   Clear
8:54 PM 44.1 °F 40.1 °F 24.1 °F 45% 30.04 in 10.0 mi WNW 6.9 mph - N/A   Clear
9:54 PM 39.9 °F - 28.9 °F 65% 30.06 in 10.0 mi Calm Calm - N/A   Clear
10:54 PM 39.0 °F 35.7 °F 28.0 °F 65% 30.07 in 10.0 mi WSW 4.6 mph - N/A   Clear
11:54 PM 36.0 °F 31.1 °F 28.9 °F 76% 30.09 in 10.0 mi WSW 5.8 mph - N/A   Clear